x

Buoy I01 - Eastern Maine Shelf (44034) Wave Buoy

8:04 - Thu 11th Feb 2016 All times are EST. -5 hours from GMT.

  • Sig Wave height 5.6ft
  • Peak Period 11s
  • Wind
    29mph, 34mph gusts
  • Sea Temp 42°f
  • Air Temp 26°f
  • Sea Pressure 1005.1mb
  • Buoy I01 - Eastern Maine Shelf
  • Buoy I01 - Eastern Maine Shelf

More Historic Weather Station data

Upgrade to MSW Pro to gain access to the past 30 days of data for over 8000 Wavebouys and Weather Stations around the globe.

Join Pro

Comparision Forecast

View Surf forecast
   
jeu. 02/11 8:04 5.5ft 11s 29 34 mph 1005.1mb 42f 26f
7:04 5ft 11s 22 29 mph 1004.4mb 42f 28f
6:04 5ft 11s 16 22 mph 1003.8mb 42f 29f
5:04 4.5ft 11s 13 18 mph 1003.2mb 42f 28f
4:04 5ft 11s 11 16 mph 1002.9mb 43f 29f
3:04 5ft 11s 9 13 mph 1002.4mb 43f 28f
2:04 5ft 11s 11 16 mph 1001.6mb 43f 28f
1:04 4.5ft 11s 11 18 mph 1001.6mb 43f 28f
12:04 5ft 11s 11 16 mph 1001.9mb 42f 27f
11:04  -   -  11 16 mph 1002.6mb 42f 27f
10:04 4.5ft 8s 16 20 mph 1002.4mb 42f 27f
9:04 3ft 5s 16 22 mph 1002.2mb 42f 27f
8:04 7ft 11s 20 25 mph 1001.9mb 42f 28f
7:04 6ft 11s 27 31 mph 1001.1mb 42f 29f
6:04 5ft 11s 18 20 mph 1000.8mb 42f 32f
5:04 5.5ft 11s 13 18 mph 1000.2mb 42f 33f
4:04 4.5ft 11s 9 11 mph 999.7mb 42f 34f
3:04 5ft 11s 9 11 mph 999.5mb 42f 35f
2:04 4.5ft 11s 11 16 mph 999.7mb 42f 35f
1:04 6ft 11s 11 16 mph 999.4mb 41f 35f
12:04 5ft 11s 16 20 mph 999.6mb 41f 34f
mer. 02/10 11:04  -   -  9 11 mph 999.9mb 41f 34f
10:04 4.5ft 11s 7 9 mph 1000.4mb 41f 34f
9:04  -   -  7 9 mph 1000.8mb 41f 34f
8:04 5.5ft 11s 4 7 mph 1001.1mb 42f 33f
7:04 7ft 16s 9 13 mph 1001.5mb 42f 32f
6:04 6ft 11s 7 9 mph 1001.6mb 42f 32f
5:04 6.5ft 11s 7 9 mph 1001mb 42f 31f
4:04 5ft 11s 4 7 mph 1000.8mb 42f 31f
3:04 3.5ft 11s 4 7 mph 1000.4mb 41f 30f
2:04 4.5ft 11s 4 9 mph 1000.5mb 42f 30f
1:04 3.5ft 11s 4
mph
1000.8mb 41f 29f
12:04 4ft 11s 2 4 mph 1001.6mb 41f 29f
11:04 3.5ft 11s 4 7 mph 1002.3mb 41f 29f
10:04 3ft 11s 7 9 mph 1002.9mb 41f 28f
9:04 3ft 11s 4 9 mph 1003.1mb 41f 27f
8:04 3.5ft 11s 9 11 mph - 41f 26f
7:04 3ft 11s 4 9 mph - 41f 24f
6:04  -   -  9 11 mph - 41f 24f
5:04 4.5ft 11s 9 13 mph - 41f 24f
4:04 4.5ft 11s 11 18 mph - 41f 24f
3:04 4.5ft 11s 9 16 mph - 41f 25f
2:04 4.5ft 11s 11 16 mph - 42f 25f
1:04  -   -  11 13 mph - 43f 25f
12:04  -   -  11 18 mph - 43f 26f
mar. 02/09 11:04  -   -  9 13 mph - 43f 26f
10:04  -   -  11 16 mph - 43f 26f
9:04 6.5ft 11s 13 16 mph - 43f 26f
8:04 2ft 3s 13 18 mph - 42f 26f
7:04 2ft 5s 16 20 mph - 42f 26f
6:04 1.6ft 3s 13 18 mph - 42f 27f
5:04  -   -  16 18 mph - 42f 26f
4:04  -   -  16 22 mph - 43f 27f
3:04 11.5ft 16s 16 18 mph - 43f 26f
2:04 12ft 16s 11 16 mph - 43f 25f
1:04 12.5ft 16s 11 16 mph - 43f 25f
12:04  -   -  11 16 mph - 43f 24f
11:04 3.5ft 5s 13 20 mph - 43f 24f
10:04 5ft 5s 13 16 mph - 43f 23f
9:04  -   -  16 20 mph - 42f 23f
8:04  -   -  18 22 mph - 42f 23f
7:04 6ft 6s 18 25 mph - 42f 24f
6:04 7ft 6s 22 29 mph - 42f 24f
5:04 7ft 6s 27 34 mph - 42f 24f
4:04 6.5ft 6s 27 31 mph - 42f 23f
3:04 9ft 11s 27 34 mph - 42f 23f
2:04 5.5ft 5s 29 36 mph 1001.2mb 42f 23f
1:04 8.5ft 8s 31 38 mph 1001.9mb 42f 24f
12:04 11ft 11s 31 38 mph 1002.4mb 42f 24f
lun. 02/08 11:04 11ft 11s 29 38 mph 1002.6mb 42f 24f
10:04 12ft 8s 31 38 mph 1002.7mb 42f 24f
9:04 11ft 11s 31 38 mph 1003.7mb 43f 24f
8:04 12ft 8s 31 40 mph 1004.3mb 42f 24f
7:04 12ft 8s 36 43 mph 1005.1mb 42f 25f
6:04 13ft 11s 34 40 mph 1005.9mb 42f 25f
5:04 11ft 8s 36 45 mph 1006.2mb 42f 25f
4:04 13ft 8s 36 43 mph 1005.9mb 43f 25f
3:04 12ft 8s 36 45 mph 1006.3mb 43f 25f
2:04 11.5ft 8s 36 43 mph 1007.1mb 43f 25f
1:04 10ft 8s 31 38 mph 1009mb 43f 25f
12:04 10ft 8s 31 38 mph 1009.5mb 43f 25f
11:04 10.5ft 8s 31 38 mph 1010.9mb 43f 25f
10:04 12ft 8s 31 40 mph 1011.1mb 42f 24f
9:04 10.5ft 8s 31 38 mph 1013mb 42f 24f
8:04 10ft 8s 31 36 mph 1014.2mb 42f 24f
7:04 10ft 8s 31 38 mph 1014.6mb 42f 24f
6:04 9ft 8s 31 38 mph 1016mb 42f 25f
5:04 8ft 6s 31 38 mph 1017.3mb 42f 24f
4:04 8ft 6s 31 38 mph 1018.4mb 42f 23f
3:04 6.5ft 6s 29 36 mph 1019.5mb 42f 25f